Location: Home
(42.5358°N, 72.7383°W)
Time: 19:34:58
(UTC-05:00)

Explorer 7 - Pass Details

Date: 02 December 2021
Orbit: 483 x 674 km, 50.3° (Epoch: 23 January)

Event Time Altitude Azimuth Distance (km) Brightness Sun altitude
Rises 13:17:10 0° 287° (WNW) 2,565 10.3 21.7°
Reaches altitude 10° 13:20:09 10° 262° (W) 1,665 9.8 21.4°
Maximum altitude 13:22:12 14° 228° (SW) 1,412 10.4 21.3°
Drops below altitude 10° 13:24:15 10° 195° (SSW) 1,653 11.2 21.1°
Sets 13:27:12 0° 169° (S) 2,535 11.1 20.9°
